Weather History for Southern Pines, NC

Change the Weather History Date:

Friday, June 20, 2014

  Actual Average Record
Temperature  
Mean Temperature 80 °F -  
Max Temperature 91 °F 84 °F 94 °F (1981)
Min Temperature 69 °F 65 °F 60 °F (1999)
Cooling Degree Days 15    
Growing Degree Days 30 (Base 50)    
Moisture  
Dew Point 67 °F    
Average Humidity 69    
Maximum Humidity 83    
Minimum Humidity 41    
Precipitation  
Precipitation 0.00 in - - ()
Sea Level Pressure  
Sea Level Pressure 30.00 in    
Wind  
Wind Speed 0 mph (North)    
Max Wind Speed 0 mph    
Max Gust Speed -    
Visibility 10 miles    
Events Thunderstorm    
Averages and records for this station are not official NWS values.
T = Trace of Precipitation, MM = Missing Value Source: NWS Daily Summary

Daily Weather History Graph

Daily Weather History Graph

Search for Another Location

Airport:

Trip Planner

Search our weather history database for the weather conditions in past years. The results will help you decide how hot, cold, wet, or windy it might be!

Date:

Astronomy

Jun. 20, 2014 Rise Set
Actual Time 6:03 AM EDT 8:35 PM EDT
Civil Twilight 5:33 AM EDT 9:05 PM EDT
Nautical Twilight 4:56 AM EDT 9:42 PM EDT
Astronomical Twilight 4:15 AM EDT 10:22 PM EDT
Moon 1:28 AM EDT (6/20) 2:19 PM EDT (6/20)
Length of Visible Light 15h 31m
Length of Day
14h 32m
Last Quarter, 40% of the Moon is Illuminated
Jun 20
Last Quarter
Jun 27
New
Jul 5
First Quarter
Jul 12
Full
Jul 18
Last Quarter

Hourly Weather History & Observations

Time (EDT) Temp. Heat Index Dew Point Humidity Pressure Visibility Wind Dir Wind Speed Gust Speed Precip Events Conditions
12:15 AM 77.0 °F - 66.2 °F 69% 30.04 in 10.0 mi Calm Calm - N/A   Clear
12:35 AM 75.2 °F - 66.2 °F 73% 30.05 in 10.0 mi Calm Calm - N/A   Clear
12:55 AM 77.0 °F - 66.2 °F 69% 30.04 in 10.0 mi Calm Calm - N/A   Clear
1:15 AM 75.2 °F - 66.2 °F 73% 30.03 in 10.0 mi Calm Calm - N/A   Clear
1:35 AM 75.2 °F - 66.2 °F 73% 30.03 in 10.0 mi Calm Calm - N/A   Clear
1:55 AM 75.2 °F - 66.2 °F 73% 30.04 in 10.0 mi Calm Calm - N/A   Clear
2:15 AM 73.4 °F - 66.2 °F 78% 30.04 in 10.0 mi Calm Calm - N/A   Clear
2:35 AM 73.4 °F - 66.2 °F 78% 30.04 in 10.0 mi Calm Calm - N/A   Clear
2:55 AM 73.4 °F - 66.2 °F 78% 30.04 in 10.0 mi Calm Calm - N/A   Clear
3:15 AM 71.6 °F - 64.4 °F 78% 30.03 in 10.0 mi Calm Calm - N/A   Clear
3:35 AM 71.6 °F - 64.4 °F 78% 30.02 in 10.0 mi Calm Calm - N/A   Clear
3:55 AM 71.6 °F - 64.4 °F 78% 30.02 in 10.0 mi Calm Calm - N/A   Clear
4:15 AM 71.6 °F - 64.4 °F 78% 30.02 in 10.0 mi Calm Calm - N/A   Clear
4:35 AM 71.6 °F - 64.4 °F 78% 30.01 in 10.0 mi Calm Calm - N/A   Clear
4:55 AM 69.8 °F - 64.4 °F 83% 30.01 in 10.0 mi Calm Calm - N/A   Clear
5:15 AM 71.6 °F - 64.4 °F 78% 30.01 in 10.0 mi Calm Calm - N/A   Clear
5:35 AM 69.8 °F - 64.4 °F 83% 30.01 in 10.0 mi Calm Calm - N/A   Clear
5:55 AM 69.8 °F - 64.4 °F 83% 30.02 in 10.0 mi Calm Calm - N/A   Clear
6:15 AM 69.8 °F - 64.4 °F 83% 30.02 in 10.0 mi Calm Calm - N/A   Clear
6:35 AM 69.8 °F - 64.4 °F 83% 30.03 in 10.0 mi Calm Calm - N/A   Clear
6:55 AM 69.8 °F - 64.4 °F 83% 30.04 in 10.0 mi Calm Calm - N/A   Clear
7:15 AM 71.6 °F - 64.4 °F 78% 30.04 in 10.0 mi Calm Calm - N/A   Clear
7:35 AM 73.4 °F - 64.4 °F 73% 30.04 in 10.0 mi Calm Calm - N/A   Clear
7:55 AM 73.4 °F - 64.4 °F 73% 30.04 in 10.0 mi Calm Calm - N/A   Clear
8:15 AM 75.2 °F - 64.4 °F 69% 30.04 in 10.0 mi Calm Calm - N/A   Clear
8:35 AM 78.8 °F - 66.2 °F 65% 30.05 in 10.0 mi Calm Calm - N/A   Clear
8:55 AM 78.8 °F - 66.2 °F 65% 30.05 in 10.0 mi Calm Calm - N/A   Clear
9:15 AM 78.8 °F - 66.2 °F 65% 30.05 in 10.0 mi Calm Calm - N/A   Clear
9:35 AM 80.6 °F 83.2 °F 68.0 °F 65% 30.04 in 10.0 mi Calm Calm - N/A   Clear
9:55 AM 80.6 °F 83.2 °F 68.0 °F 65% 30.04 in 10.0 mi Calm Calm - N/A   Clear
10:15 AM 82.4 °F 85.4 °F 68.0 °F 62% 30.04 in 10.0 mi Calm Calm - N/A   Clear
10:35 AM 84.2 °F 87.3 °F 68.0 °F 58% 30.04 in 10.0 mi Calm Calm - N/A   Clear
10:55 AM 84.2 °F 87.3 °F 68.0 °F 58% 30.04 in 10.0 mi Calm Calm - N/A   Clear
11:15 AM 86.0 °F 89.4 °F 68.0 °F 55% 30.04 in 10.0 mi Calm Calm - N/A   Clear
11:35 AM 86.0 °F 89.4 °F 68.0 °F 55% 30.04 in 10.0 mi Calm Calm - N/A   Clear
11:55 AM 87.8 °F 91.4 °F 68.0 °F 52% 30.03 in 10.0 mi Calm Calm - N/A   Clear
12:15 PM 89.6 °F 92.2 °F 66.2 °F 46% 30.03 in 10.0 mi Calm Calm - N/A   Clear
12:35 PM 89.6 °F 92.2 °F 66.2 °F 46% 30.03 in 10.0 mi Calm Calm - N/A   Partly Cloudy
12:55 PM 89.6 °F 92.2 °F 66.2 °F 46% 30.02 in 10.0 mi Calm Calm - N/A   Mostly Cloudy
1:15 PM 89.6 °F 92.2 °F 66.2 °F 46% 30.01 in 10.0 mi Calm Calm - N/A   Unknown
1:35 PM 91.4 °F 94.0 °F 66.2 °F 43% 30.00 in 10.0 mi Calm Calm - N/A   Mostly Cloudy
1:55 PM 89.6 °F 91.1 °F 64.4 °F 43% 30.00 in 10.0 mi Calm Calm - N/A   Scattered Clouds
2:15 PM 91.4 °F 93.2 °F 64.4 °F 41% 29.99 in 10.0 mi Calm Calm - N/A Thunderstorm Partly Cloudy
2:35 PM 89.6 °F 92.2 °F 66.2 °F 46% 29.98 in 10.0 mi Calm Calm - N/A Thunderstorm Scattered Clouds
2:55 PM 89.6 °F 93.4 °F 68.0 °F 49% 29.97 in 10.0 mi Calm Calm - N/A Thunderstorm Partly Cloudy
3:15 PM 84.2 °F 86.6 °F 66.2 °F 55% 29.97 in 10.0 mi Calm Calm - N/A   Mostly Cloudy
4:15 PM 80.6 °F 83.9 °F 69.8 °F 70% 29.98 in 10.0 mi Calm Calm - N/A Thunderstorm Thunderstorm
4:35 PM 80.6 °F 83.9 °F 69.8 °F 70% 29.96 in 10.0 mi Calm Calm - N/A Thunderstorm Mostly Cloudy
4:55 PM 82.4 °F 86.3 °F 69.8 °F 66% 29.94 in 10.0 mi Calm Calm - N/A   Partly Cloudy
5:15 PM 82.4 °F 86.3 °F 69.8 °F 66% 29.95 in 10.0 mi Calm Calm - N/A   Scattered Clouds
5:35 PM 82.4 °F 86.3 °F 69.8 °F 66% 29.95 in 10.0 mi Calm Calm - N/A   Scattered Clouds
5:55 PM 80.6 °F 83.9 °F 69.8 °F 70% 29.95 in 10.0 mi Calm Calm - N/A   Mostly Cloudy
6:15 PM 80.6 °F 83.9 °F 69.8 °F 70% 29.94 in 10.0 mi Calm Calm - N/A   Scattered Clouds
6:35 PM 80.6 °F 83.9 °F 69.8 °F 70% 29.93 in 10.0 mi Calm Calm - N/A   Partly Cloudy
6:55 PM 80.6 °F 83.9 °F 69.8 °F 70% 29.94 in 10.0 mi Calm Calm - N/A   Mostly Cloudy
7:15 PM 80.6 °F 83.9 °F 69.8 °F 70% 29.94 in 10.0 mi Calm Calm - N/A   Mostly Cloudy
7:35 PM 80.6 °F 83.9 °F 69.8 °F 70% 29.95 in 10.0 mi Calm Calm - N/A   Partly Cloudy
7:55 PM 80.6 °F 83.9 °F 69.8 °F 70% 29.95 in 10.0 mi Calm Calm - N/A   Scattered Clouds
8:15 PM 80.6 °F 83.2 °F 68.0 °F 65% 29.95 in 10.0 mi Calm Calm - N/A   Clear
8:35 PM 78.8 °F - 68.0 °F 69% 29.95 in 10.0 mi Calm Calm - N/A   Clear
8:55 PM 78.8 °F - 69.8 °F 74% 29.96 in 10.0 mi Calm Calm - N/A   Scattered Clouds
9:15 PM 75.2 °F - 69.8 °F 83% 29.96 in 10.0 mi Calm Calm - N/A   Partly Cloudy
9:55 PM 75.2 °F - 69.8 °F 83% 29.96 in 10.0 mi Calm Calm - N/A   Mostly Cloudy
10:15 PM 75.2 °F - 69.8 °F 83% 29.96 in 10.0 mi Calm Calm - N/A   Overcast
10:35 PM 75.2 °F - 69.8 °F 83% 29.96 in 10.0 mi Calm Calm - N/A   Scattered Clouds
10:55 PM 75.2 °F - 69.8 °F 83% 29.96 in 10.0 mi Calm Calm - N/A   Mostly Cloudy
11:15 PM 75.2 °F - 69.8 °F 83% 29.97 in 10.0 mi Calm Calm - N/A   Mostly Cloudy
11:35 PM 77.0 °F - 69.8 °F 78% 29.96 in 10.0 mi Calm Calm - N/A Thunderstorm Mostly Cloudy
11:55 PM 75.2 °F - 69.8 °F 83% 29.96 in 10.0 mi Calm Calm - N/A Thunderstorm Scattered Clouds